Tracking 25693 objects as of 1-Jul-2022
HD Live streaming from Space Station
objects crossing your sky now

SL-24 DEB

Track SL-24 DEB now!
10-day predictions


NORAD ID: 35413
Int'l Code: 2006-029F
Perigee: 442.6 km
Apogee: 485.2 km
Inclination: 64.5 °
Period: 93.7 minutes
Semi major axis: 6834 km
RCS: 0.0113 m2 (small)
Launch date: July 12, 2006
Source: Commonwealth of Independent States (former USSR) (CIS)
Launch site: Orenburg, Russia (OREN)

Note: This is SATELLITE DEBRIS
aabbcc
Your satellite tracking list
Your tracking list is empty




NASA's NSSDC Master Catalog

Two Line Element Set (TLE):
1 35413U 06029F   22182.34327546  .00004062  00000-0  11897-3 0  9993
2 35413  64.5083 141.0174 0031157 266.9542  92.8025 15.36405540 57442
Source of the keplerian elements: AFSPC